This demonstration page uses our WeatherBlox Daily Observations layout. Learn more.

Left ArrowRight Arrow

38.89511, -77.03637

Hourly Observations for November 25, 2015

Temp ( °F °C ) Dew Point ( °F °C ) Humidity (%) Winds ( mph kmh ) Pressure ( in mb ) Visibility ( mi km ) Precip ( " mm )
12:52 am 00:52 Mostly Clear 40 4.4 33 0.6 77 77 NE 6 9 30.53 1034 10 16 N/A
1:52 am 01:52 Mostly Cloudy 40 4.4 33 0.6 77 77 NE 5 7 30.55 1035 10 16 N/A
2:52 am 02:52 Partly Cloudy 39 3.9 32 undefined 76 76 NE 5 7 30.58 1035 10 16 N/A
3:52 am 03:52 Mostly Clear 38 3.3 32 undefined 79 79 NNE 6 9 30.59 1036 10 16 N/A
4:52 am 04:52 Partly Cloudy 38 3.3 33 0.6 83 83 NNE 5 7 30.60 1036 10 16 N/A
5:52 am 05:52 Mostly Clear 38 3.3 33 0.6 83 83 NNE 5 7 30.62 1037 10 16 N/A
6:52 am 06:52 Mostly Clear 37 2.8 33 0.6 86 86 NE 5 7 30.66 1038 10 16 N/A
7:52 am 07:52 Mostly Sunny 39 3.9 34 1.1 82 82 NNE 5 7 30.67 1039 10 16 N/A
8:52 am 08:52 Mostly Sunny 43 6.1 34 1.1 71 71 N 6 9 30.69 1039 10 16 N/A
9:52 am 09:52 Mostly Sunny 47 8.3 36 2.2 66 66 N 6 9 30.71 1040 10 16 N/A
10:52 am 10:52 Mostly Sunny 51 10.6 37 2.8 59 59 NE 5 7 30.71 1040 10 16 N/A
11:52 am 11:52 Mostly Sunny 54 12.2 36 2.2 51 51 NNE 3 6 30.70 1040 10 16 N/A
12:52 pm 12:52 Mostly Sunny 56 13.3 36 2.2 47 47 N N/A 30.68 1039 10 16 N/A
1:52 pm 13:52 Mostly Sunny 57 13.9 34 1.1 42 42 S 6 9 30.68 1039 10 16 N/A
2:52 pm 14:52 Mostly Sunny 57 13.9 34 1.1 42 42 S 8 13 30.68 1039 10 16 N/A
3:52 pm 15:52 Mostly Sunny 55 13 36 2 47 47 S 7 11 30.68 1039 10 16 N/A
4:52 pm 16:52 Mostly Clear 51 10.6 36 2.2 56 56 S 8 13 30.69 1039 10 16 N/A
5:52 pm 17:52 Mostly Clear 51 10.6 33 0.6 50 50 SE 8 13 30.71 1040 10 16 N/A
6:52 pm 18:52 Clear 47 8.3 35 1.7 63 63 SSE 6 9 30.73 1041 10 16 N/A
7:52 pm 19:52 Clear 48 8.9 35 1.7 61 61 SSE 6 9 30.75 1041 10 16 N/A
8:52 pm 20:52 Clear 47 8.3 36 2.2 66 66 S 8 13 30.75 1041 10 16 N/A
9:52 pm 21:52 Clear 47 8.3 37 2.8 69 69 SSE 8 13 30.73 1041 10 16 N/A
10:52 pm 22:52 Clear 46 7.8 37 2.8 71 71 S 3 6 30.75 1041 10 16 N/A
11:52 pm 23:52 Clear 45 7.2 37 2.8 74 74 N N/A 30.76 1042 10 16 N/A

Powered by AerisWeather